Location: Biltmore Gardens
(41.6070°N, 83.4666°W)
Time: 14:28:17
(UTC+00:00)

Cosmos 1500 Rocket - Pass Details

Date: 14 July 2020
Orbit: 602 x 632 km, 82.5° (Epoch: 04 August)

Event Time Altitude Azimuth Distance (km) Brightness Sun altitude
Exits shadow 05:12:10 50° 299° (WNW) 791 4.2 -26.5°
Drops below altitude 10° 05:16:05 10° 358° (N) 1,975 7.1 -26.6°
Sets 05:18:21 0° 3° (N) 2,880 8.3 -26.6°
